Location: Buena Vista Beach
(41.8098°N, 81.1279°W)
Time: 14:25:57
(UTC+00:00)

Daily predictions for brighter satellites

Satellite Brightness Start Highest point End
(mag) Time Altitude Azimuth Time Altitude Azimuth Time Altitude Azimuth
Cosmos 292 Rocket 4.0 22:46:58 10° SSW 22:51:46 78° WNW 22:56:37 10° NNE
H-2A R/B 4.0 22:48:43 10° S 22:52:59 46° W 22:57:21 10° NNW
Timation 2 Rocket 4.2 22:49:01 10° NNW 22:55:42 80° ENE 23:02:34 10° SSE
Radarsat Rocket 4.4 22:49:59 10° S 22:56:02 69° WSW 23:01:49 10° NNW
Meteor 2-10 Rocket 4.4 22:53:08 10° SSE 22:57:31 27° E 23:01:49 10° NNE
Okean-O 3.9 22:54:25 10° ESE 22:57:40 20° ENE 23:00:54 10° NNE
SMAP 3.3 22:57:01 10° S 23:01:40 77° WSW 23:06:21 10° NNW
Cosmos 1553 Rocket 4.3 22:56:15 10° SSE 23:02:13 45° E 23:08:07 10° NNE
Cosmos 1408 4.1 23:00:06 10° NNE 23:02:37 17° ENE 23:05:10 10° ESE
Cosmos 1689 Rocket 3.2 23:00:28 10° NE 23:02:52 23° E 23:05:16 10° SSE
FengYun 1-2 T 4.3 22:58:13 10° SSE 23:03:49 70° ENE 23:09:25 10° N
H-2A R/B 3.6 23:02:01 10° E 23:05:29 17° ENE 23:08:57 10° NNE
AQUARIUS 4.4 23:02:55 10° S 23:07:24 75° WSW 23:11:55 10° NNW
Cosmos 1953 Rocket 3.6 23:04:58 10° N 23:09:25 86° W 23:13:52 10° S
Cosmos 44 Rocket 4.2 23:08:41 10° SSE 23:12:38 27° ESE 23:16:15 12° ENE
Cosmos 2058 Rocket 3.0 23:09:40 10° S 23:14:08 78° E 23:18:40 10° N
Lacrosse 5 4.0 23:11:30 10° NNW 23:14:11 14° N 23:16:53 10° NE
Cosmos 2219 3.2 23:12:28 10° NNW 23:18:16 80° ENE 23:24:00 10° SSE
Cosmos 1892 3.0 23:17:44 10° N 23:21:29 46° ENE 23:25:13 10° SSE
Cosmos 1939 Rocket 2.8 23:19:29 10° SSE 23:23:22 57° ENE 23:27:13 10° N
ARGOS 4.5 23:21:55 15° E 23:23:56 19° ENE 23:27:36 10° NNE
SL-08 R/B 4.4 23:18:07 10° N 23:24:14 63° E 23:30:15 10° SSE
Cosmos 1076 Rocket 4.4 23:20:58 10° NNE 23:24:35 26° ENE 23:28:11 10° SE
Cosmos 968 Rocket 3.5 23:19:58 10° NNW 23:25:07 59° ENE 23:30:11 10° SSE
Cosmos 2082 4.1 23:19:51 10° N 23:25:15 40° ENE 23:30:37 10° SE
Cosmos 1656 3.8 23:20:07 10° SSW 23:25:41 83° WNW 23:31:21 10° NNE
CZ-4B R/B 2.5 23:24:20 10° N 23:27:22 42° WNW 23:30:19 10° SW
SAR-Lupe-4 3.5 23:24:28 10° NNE 23:28:04 86° WNW 23:31:38 10° SSW
Cosmos 1300 4.4 23:25:35 10° SW 23:29:06 35° WNW 23:32:39 10° N
Aureole 3 Rocket 3.4 23:25:51 10° SSW 23:29:49 78° W 23:35:23 10° N
Cosmos 1745 Rocket 4.1 23:24:55 10° N 23:31:04 51° ENE 23:37:12 10° SSE
NOSS 3-3 (A) 3.8 23:26:00 10° SSW 23:31:40 69° ESE 23:38:03 10° NE
NOSS 3-3 (C) 3.8 23:26:07 10° SSW 23:31:48 68° ESE 23:38:10 10° NE
USA 307 3.5 23:28:59 10° NW 23:33:02 39° NNE 23:35:04 24° E
Cosmos 1400 Rocket 3.6 23:29:22 10° SSW 23:33:24 56° WNW 23:37:26 10° N
Feng Yun 1-1 Rocket 4.5 23:30:22 10° SSE 23:36:16 84° WSW 23:42:14 10° NNW
Cosmos 1825 3.0 23:33:05 10° NNE 23:36:24 28° ENE 23:37:06 26° E
ERS-2 3.9 23:33:27 10° N 23:36:46 33° WNW 23:40:04 10° SW
COSMO-SKYMED 1 2.5 23:33:29 10° NNE 23:37:52 89° ESE 23:42:12 10° SSW
USA 308 3.4 23:33:57 10° NW 23:38:02 42° NNE 23:39:51 27° E
IRS-1C Rocket 4.0 23:32:59 10° SSE 23:38:15 83° ENE 23:43:34 10° NNW
Cosmos 2369 3.8 23:32:56 10° S 23:38:31 57° ESE 23:44:07 10° NNE
GPS 2-04 Rocket1 4.2 23:36:04 10° SW 23:39:28 26° SSE 23:41:13 19° SE
Helios 1A Rocket 2.9 23:37:56 10° SSE 23:42:00 62° ENE 23:46:04 10° N
OAO 2 Rocket 4.2 23:39:37 10° WSW 23:44:15 38° S 23:46:58 21° SE
CSL-04 Rocket 4.2 23:40:23 10° SE 23:45:24 37° ENE 23:50:25 10° N
ATLAS 2AS CENTAUR R/B 3.8 23:39:40 10° NNW 23:45:57 27° NE 23:48:38 22° ENE
CZ-4 R/B 4.3 23:42:02 10° SSE 23:46:12 82° ENE 23:50:22 10° N
CZ-2D R/B 3.1 23:42:34 10° SSE 23:46:23 78° ENE 23:50:11 10° N
Cosmos 1340 3.7 23:43:41 10° NNW 23:47:21 49° W 23:50:59 10° S
YAOGAN 1 2.7 23:43:51 10° SSE 23:48:02 50° ENE 23:52:14 10° N
Cosmos 2227 Rocket 2.4 23:43:13 10° NNW 23:48:53 76° WSW 23:54:31 10° SSE
Cosmos 2263 Rocket 3.5 23:46:09 10° N 23:50:16 20° NE 23:50:16 20° NE
CZ-4 R/B 1.1 23:48:14 10° SSE 23:52:04 65° ENE 23:55:54 10° N
Cosmos 1812 Rocket 3.5 23:50:06 10° S 23:54:25 58° E 23:58:43 10° NNE
Okean O Rocket 4.5 23:53:10 10° SW 23:56:22 20° W 23:59:33 10° NW
